View from above orbital plane
|
View from above satellite
|
Ground track
|
The orbit data is extracted from the following two-line orbital elements,
1 00082U 61004B 21025.90927614 -.00000141 00000-0 -62782-4 0 9996
2 00082 38.8563 94.6613 1174844 77.2412 295.6750 12.26048529835117
Epoch (UTC): | 25 January 2021 21:49:21 |
Eccentricity: | 0.1174844 |
inclination: | 38.8563° |
perigee height: | 633 km |
apogee height: | 2499 km |
right ascension of ascending node: | 94.6613° |
argument of perigee: | 77.2412° |
revolutions per day: | 12.26048529 |
mean anomaly at epoch: | 295.6750° |
orbit number at epoch: | 83511 |
The dashed part of the orbit path shows where the satellite is in the earth's shadow,
|
|